Regional Weather Roundup
Issued by NWS Mobile, AL

Home | Current Version | Previous Version | Text Only | Print | Product List | Glossary On
Versions: 1 2 3 4 5 6 7 8 9 10 11 12 13 14 15 16 17 18 19 20 21 22 23 24 25 26 27 28
000
ASUS44 KMOB 210912
RWRMOB
REGIONAL WEATHER ROUNDUP
NATIONAL WEATHER SERVICE MOBILE AL
300 AM CST TUE NOV 21 2017

NOTE: "FAIR" INDICATES FEW OR NO CLOUDS BELOW 12,000 FEET WITH NO
      SIGNIFICANT WEATHER AND/OR OBSTRUCTIONS TO VISIBILITY.

  * THESE STATIONS ARE PART OF THE UNIVERSITY OF SOUTH ALABAMA
    MESONET AND ARE NOT UNDER NWS OR FAA QUALITY CONTROL.

ALZ061>064-211000-
COASTAL ALABAMA

CITY           SKY/WX    TMP DP  RH WIND       PRES   REMARKS
MOBILE REG APT PTCLDY    47  40  76 E5        30.05F
BROOKLEY FIELD PTCLDY    47  44  90 NW5       30.07F
USA CAMPUS*    NOT AVBL
DOG RIVER*     NOT AVBL


CITY           SKY/WX    TMP DP  RH WIND       PRES   REMARKS
GULF SHORES    PTCLDY    46  41  82 CALM      30.05F

$$

ALZ051>060-211000-
INTERIOR SOUTHWEST AND SOUTH CENTRAL ALABAMA

CITY           SKY/WX    TMP DP  RH WIND       PRES   REMARKS
GREENVILLE     CLOUDY    38  34  85 NE3       30.08F
EVERGREEN      CLOUDY    37  35  92 CALM      30.09F
ATMORE*          N/A    N/A N/A N/A CALM        N/A
ANDALUSIA/OPP  CLOUDY    45  41  86 CALM      30.08F
ANDALUSIA*       N/A     45  41  87 CALM      30.07F
FLORALA APT    CLOUDY    44  40  85 NE3       30.10F
FLORALA*         N/A     43  43 100 CALM      30.79F

$$

FLZ001>006-211000-
WESTERN FLORIDA PANHANDLE

CITY           SKY/WX    TMP DP  RH WIND       PRES   REMARKS
PENSACOLA      PTCLDY    51  38  60 NE7       30.06F
NAS PENSACOLA  CLOUDY    49  39  68 NE6       30.05F
MILTON         PTCLDY    43  39  86 N3        30.06F
WHTNG S FIELD  CLOUDY    48  36  63 NE8       30.06F


CITY           SKY/WX    TMP DP  RH WIND       PRES   REMARKS
JAY*             N/A     45  37  76 CALM      30.07F
DUKE FIELD     CLOUDY    44  39  84 CALM      30.06F
CRESTVIEW      CLOUDY    42  40  92 CALM      30.09F
VALPARAISO     MOCLDY    48  37  65 N8        30.06F
DESTIN         MOCLDY    56  41  57 N7        30.06F

$$

MSZ076-079-211000-
INTERIOR SOUTHEAST MISSISSIPPI

CITY           SKY/WX    TMP DP  RH WIND       PRES   REMARKS
LEAKESVILLE*     N/A     41  39  93 CALM      30.08S
AGRICOLA*        N/A     45  39  81 CALM      30.05S

$$

MARINE OBSERVATIONS

STATION/POSITION TIME  TEMP    WIND        PRES    WAVE
                       AIR SEA DIR/SP/G            HT/PER
                 (UTC) (F)     (DEG/KT/KT) (MB)    (FT/S)
PASCAGOULA       0842   51      20/  4/  6 1017.3F
PETIT BOIS ISLND 0842   59      80/ 10/ 13 1017.9F
E DAUPHIN ISLAND 0800   57      60/ 13/ 14 1017.5F
USCG MOBILE BAY  0842   48 65  360/  3/  4 1017.9F
STATE DOCKS      0842   49 67              1017.8F
WEEKS BAY        0745   44                 1018.0F
FORT MORGAN      0842   55      80/ 12/ 16   N/A
12 S ORANGE BCH  NOT AVBL
PENSACOLA BAY    0842   52 65              1018.0F
64 S DAUPHIN ISL 0900   68 78   80/ 10/ 12 1016.1
67 S FORT MORGAN 0830           70/ 12       N/A

$$

SELECTED LOCATIONS ACROSS THE REGION

CITY           SKY/WX    TMP DP  RH WIND       PRES   REMARKS
NEW ORLEANS    CLOUDY    56  52  86 CALM      30.05S
GULFPORT       CLOUDY    47  40  76 N3        30.05S
PASCAGOULA AP  CLOUDY    44  41  89 N3        30.05S
PASCAGOULA*      N/A     48  45  87 CALM        N/A
HATTIESBURG    CLOUDY    39  39 100 CALM      30.08S
LAUREL         CLOUDY    37  36  96 CALM      30.08S
MERIDIAN       CLOUDY    34  33  96 CALM      30.09S
JACKSON        CLEAR     35  31  85 CALM      30.05F
MONTGOMERY     CLOUDY    41  36  82 CALM      30.11S
TROY           CLOUDY    40  40 100 CALM      30.10F
ASHFORD*         N/A     45  41  87 CALM      30.07F
DOTHAN         CLOUDY    48  43  82 E7        30.11F
PANAMA CITY    CLOUDY    48  41  76 N5        30.05F

$$





USA.gov is the U.S. government's official web portal to all federal, state and local government web resources and services.